Location: Newark
(7.0858°N, 171.3717°E)
Time: 22:55:09
(UTC+00:00)

Vanguard 3 - All Passes

Search period start: 25 November 2020 00:00
Search period end: 05 December 2020 00:00
Orbit: 508 x 3262 km, 33.3° (Epoch: 25 November)

Date Brightness Start Highest point End Pass type
(mag) Time Alt. Az. Time Alt. Az. Time Alt. Az.
25 Nov - 04:34:29 10° S 04:38:18 14° SSE 04:41:20 10° SE daylight
25 Nov - 06:45:49 10° SW 06:51:14 84° SE 06:55:03 10° ENE visible
25 Nov - 13:30:00 10° N 13:32:45 12° NNE 13:35:59 10° NE visible
25 Nov - 15:37:39 10° NW 15:46:48 47° NE 16:02:07 10° ESE visible
25 Nov - 17:49:07 10° WNW 18:01:52 71° SW 18:21:24 10° SE visible
25 Nov - 20:05:39 10° W 20:19:44 31° SSW 20:35:58 10° SSE daylight
25 Nov - 22:36:29 10° SSW 22:40:40 11° SSW 22:44:44 10° S daylight
26 Nov - 05:30:53 10° SW 05:37:13 35° SSE 05:41:22 10° E daylight
26 Nov - 07:45:14 10° W 07:48:46 22° NW 07:51:46 10° NNE visible
26 Nov - 14:25:00 10° NNW 14:31:39 26° NE 14:41:46 10° E visible
26 Nov - 16:34:54 10° NW 16:45:30 81° NE 17:03:37 10° ESE visible
26 Nov - 18:48:27 10° W 19:01:55 44° SSW 19:20:12 10° SSE daylight
26 Nov - 21:10:23 10° WSW 21:21:26 18° SSW 21:32:50 10° S daylight
27 Nov - 04:16:06 10° SSW 04:22:26 21° SSE 04:26:51 10° ESE daylight
27 Nov - 06:29:13 10° WSW 06:35:12 69° NW 06:39:11 10° NE visible
27 Nov - 13:14:02 10° N 13:16:39 12° NNE 13:19:44 10° NE visible
27 Nov - 15:21:30 10° NW 15:30:01 52° NE 15:44:48 10° ESE visible
27 Nov - 17:33:01 10° WNW 17:44:48 62° SW 18:03:28 10° SE visible
27 Nov - 19:50:01 10° WSW 20:02:51 26° SSW 20:18:00 10° SSE daylight
28 Nov - 03:01:27 10° S 03:06:48 15° SSE 03:11:00 10° SE daylight
28 Nov - 05:13:35 10° SW 05:21:14 51° SSE 05:25:52 10° ENE daylight
28 Nov - 07:29:27 10° W 07:32:41 18° NW 07:35:24 10° N visible
28 Nov - 14:08:53 10° NNW 14:15:10 28° NE 14:24:59 10° E visible
28 Nov - 16:18:46 10° NW 16:28:34 89° SW 16:45:52 10° SE visible
28 Nov - 18:32:38 10° W 18:44:58 38° SSW 19:02:07 10° SSE daylight
28 Nov - 20:55:34 10° SW 21:04:59 15° SSW 21:14:50 10° S daylight
29 Nov - 01:47:36 10° S 01:50:11 11° SSE 01:52:32 10° SSE daylight
29 Nov - 03:58:03 10° SSW 04:06:29 30° SSE 04:11:47 10° E daylight
29 Nov - 06:12:36 10° WSW 06:19:05 51° NW 06:23:15 10° NE daylight
29 Nov - 12:57:53 10° N 13:00:31 12° NNE 13:03:38 10° NE night (unlit)
29 Nov - 15:05:23 10° NW 15:13:17 58° NE 15:27:25 10° ESE visible
29 Nov - 17:17:05 10° WNW 17:27:54 53° SSW 17:45:25 10° SE visible
29 Nov - 19:34:42 10° WSW 19:46:09 22° SSW 19:59:51 10° SSE daylight
30 Nov - 02:42:33 10° SSW 02:50:50 20° SSE 02:56:40 10° ESE daylight
30 Nov - 04:56:18 10° SW 05:05:09 70° SSE 05:10:13 10° ENE daylight
30 Nov - 07:13:45 10° WNW 07:16:34 14° NW 07:18:56 10° N visible
30 Nov - 13:52:47 10° NNW 13:58:42 30° NE 14:08:11 10° E visible
30 Nov - 16:02:47 10° WNW 16:11:47 78° SW 16:28:01 10° SE visible
30 Nov - 18:17:01 10° W 18:28:13 32° SSW 18:43:52 10° SSE daylight
30 Nov - 20:41:13 10° SW 20:48:43 13° SSW 20:56:35 10° S daylight
01 Dec - 01:27:05 10° SSW 01:34:13 15° SSE 01:39:53 10° SE daylight
01 Dec - 03:40:08 10° SW 03:50:25 40° SSE 03:56:28 10° E daylight
01 Dec - 05:56:00 10° WSW 06:02:53 40° NW 06:07:15 10° NNE daylight
01 Dec - 12:41:38 10° N 12:44:21 13° NE 12:47:39 10° ENE night (unlit)
01 Dec - 14:49:21 10° NW 14:56:38 66° NE 15:10:00 10° ESE visible
01 Dec - 17:01:18 10° W 17:11:12 45° SSW 17:27:15 10° SE visible
01 Dec - 19:19:45 10° WSW 19:29:39 19° SSW 19:41:28 10° SSE daylight
02 Dec - 00:12:01 10° S 00:16:24 11° SSE 00:20:21 10° SSE daylight
02 Dec - 02:24:01 10° SSW 02:34:45 27° SSE 02:41:44 10° E daylight
02 Dec - 04:39:01 10° SW 04:48:57 89° SSE 04:54:27 10° NE daylight
02 Dec - 06:58:11 10° WNW 07:00:25 12° NW 07:02:23 10° N visible
02 Dec - 13:36:41 10° NNW 13:42:16 34° NE 13:51:22 10° E visible
02 Dec - 15:46:53 10° WNW 15:55:09 66° SSW 16:10:07 10° SE visible
02 Dec - 18:01:41 10° WSW 18:11:39 26° SSW 18:25:28 10° SSE visible
02 Dec - 20:27:34 10° SSW 20:32:36 11° SSW 20:37:51 10° S daylight
03 Dec - 01:07:59 10° SSW 01:18:07 19° SSE 01:25:37 10° ESE daylight
03 Dec - 03:22:16 10° SW 03:34:13 52° SSE 03:40:55 10° ENE daylight
03 Dec - 05:39:23 10° W 05:46:38 34° NW 05:51:13 10° NNE daylight
03 Dec - 12:25:19 10° N 12:28:10 14° NE 12:31:41 10° ENE night (unlit)
03 Dec - 14:33:24 10° NW 14:40:05 78° NE 14:52:32 10° ESE visible
03 Dec - 16:45:43 10° W 16:54:40 37° SSW 17:08:58 10° SSE visible
03 Dec - 19:05:16 10° SW 19:13:20 15° SSW 19:22:48 10° SSE daylight
03 Dec - 23:52:07 10° S 00:00:20 14° SSE 00:07:17 10° SE daylight
04 Dec - 02:05:40 10° SSW 02:18:32 35° SSE 02:26:29 10° E daylight
04 Dec - 04:21:43 10° WSW 04:32:38 75° NW 04:38:35 10° NE daylight
04 Dec - 06:42:47 10° NW 06:44:17 11° NW 06:45:39 10° NNW visible
04 Dec - 13:20:38 10° NNW 13:25:52 39° NE 13:34:33 10° ESE visible
04 Dec - 15:31:09 10° WNW 15:38:41 54° SSW 15:52:09 10° SE visible
04 Dec - 17:46:40 10° WSW 17:55:16 21° SSW 18:06:51 10° SSE visible
04 Dec - 22:37:00 10° S 22:41:17 11° S 22:45:23 10° SSE daylight
